Regional Weather Roundup
Issued by NWS

Home | Current Version | Previous Version | Text Only | Print | Product List | Glossary Off
Versions: 1 2 3 4 5 6 7 8 9 10 11 12 13 14 15 16 17 18 19 20 21 22 23 24 25 26 27 28 29 30 31 32 33 34 35 36 37 38 39 40 41 42 43 44 45 46 47 48 49 50

000
ASUS43 KLSX 221859
RWRMO

WEATHER SUMMARY FOR MISSOURI
NATIONAL WEATHER SERVICE SPRINGFIELD MO
200 PM CDT FRI MAY 22 2015

NOTE: "FAIR" INDICATES FEW OR NO CLOUDS BELOW 12,000 FEET WITH NO
       SIGNIFICANT WEATHER AND/OR OBSTRUCTIONS TO VISIBILITY.
       CURRENT SKY AND/OR WEATHER CONDITIONS ARE NOT AVAILABLE FOR
       CHILLICOTHE AND FARMINGTON.

MOZ001>031-035>038-043-044-053-054-222000-
...NORTHERN AND WESTERN MISSOURI...

CITY           SKY/WX    TMP DP  RH WIND       PRES   REMARKS
KANSAS CTY INT CLOUDY    63  49  60 S7        30.25F
KANSAS C DTWN  CLOUDY    67  44  43 SE7       30.25F
LEE`S SUMMIT   CLOUDY    65  46  50 S9        30.26F
ST JOSEPH      CLOUDY    62  48  60 SW7       30.26S
KIRKSVILLE     CLOUDY    71  53  52 SW7       30.25S

$$
MOZ066>068-077>081-088>096-101>105-222000-
...SOUTHWEST MISSOURI...

CITY           SKY/WX    TMP DP  RH WIND       PRES   REMARKS
SPRINGFIELD    CLOUDY    66  46  48 SE9       30.26F
JOPLIN         LGT RAIN  62  47  57 E9        30.24F

$$
MOZ032>034-039>042-045>050-055>058-069>072-222000-
...CENTRAL MISSOURI...

CITY           SKY/WX    TMP DP  RH WIND       PRES   REMARKS
COLUMBIA       CLOUDY    68  52  56 SW13      30.27S
JEFFERSON CITY CLOUDY    67  54  63 SW7       30.27S
ROLLA          CLOUDY    64  51  62 SW9       30.28S
SEDALIA        CLOUDY    66  51  58 SW5       30.29F
OSAGE BEACH    CLOUDY    68  46  45 CALM      30.28F

$$
MOZ051-052-059>065-222000-
...EAST CENTRAL MISSOURI...

CITY           SKY/WX    TMP DP  RH WIND       PRES   REMARKS
ST LOUIS INTL  CLOUDY    74  51  44 SW7       30.25S
SPIRIT OF STL  CLOUDY    72  49  44 SW6       30.24S
ST CHARLES     CLOUDY    74  48  39 W6        30.24R

$$
MOZ072>076-082>087-097>100-106>115-222000-
...SOUTH CENTRAL AND SOUTHEAST MISSOURI...

CITY           SKY/WX    TMP DP  RH WIND       PRES   REMARKS
CAPE GIRARDEAU MOSUNNY   69  50  50 MISG      30.28S
FARMINGTON     PTSUNNY   70  52  52 SW8       30.32S
POPLAR BLUFF   MOSUNNY   68  45  43 SW5       30.29S
WEST PLAINS    PTSUNNY   64  44  48 E3        30.30F

$$


USA.gov is the U.S. government's official web portal to all federal, state and local government web resources and services.